SCP
-0 -0 -0 0 0 0 0 0 0 0 0 0 0 0 -0 -0 0 0 0 -0 -0 -0 -0 -0 -0 -0 -0 -0 -0 -0 -0 -0 -0 -0 -0 -0 -0 -0 -0 -0 -0 -0 -0 -0 -0 -0 -0 -0 0
0 0 0 0 0 0 0 0 0 0 0 0 0 0 0 0 0 0 -0 0 -0 -0 -0 -0 -0 -0 -0 -0 -0 -0 -0 -0 -0 -0 0 -0 -0 -0 -0 -0 -0 -0 -0 -0 -0 -0 -0 -0 0
0 0 0 0 0 0 0 0 0 0 0 0 0 0 0 0 0 0 0 0 0 0 0 0 0 0 0 0 -0 -0 -0 -0 -0 -0 -0 0 0 -0 -0 -0 0 0 0 0 0 0 0 0 0
0 0 0 0 0 0 0 0 0 0 0 0 0 0 0 0 0 0 0 0 0 0 0 0 0 0 0 0 0 -0 -0 -0 0 -0 0 0 0 0 0 0 0 0 0 0 0 0 0 0 0
0 0 0 0 0 0 0 0 0 0 0 0 0 0 0 0 0 0 0 0 0 0 0 0 0 0 0 0 0 0 -0 -0 -0 0 0 0 0 0 0 0 0 0 0 0 0 0 0 0 0
0 0 0 0 0 0 0 0 0 0 0 0 0 0 0 0 0 0 0 0 0 0 0 0 0 0 0 0 0 0 0 0 0 0 0 0 0 0 0 0 0 0 0 0 0 0 0 0 0
0 0 0 0 0 0 0 0 0 0 0 0 0 0 0 0 0 0 0 0 0 0 0 0 0 0 0 0 0 0 0 0 0 0 0 0 0 0 0 0 0 0 0 0 0 0 0 0 0
0 0 0 0 0 0 0 0 0 0 0 0 0 0 0 0 0 0 0 0 0 0 0 0 0 0 0 0 0 0 0 0 0 0 0 0 0 0 0 0 0 0 0 0 0 0 0 0 0
0 0 0 0 0 0 0 0 0 0 0 0 0 0 0 0 -0 0 0 0 0 0 0 0 0 0 0 0 0 0 0 0 0 0 0 0 0 0 0 0 0 0 0 0 0 0 0 0 0
0 0 0 0 0 0 0 0 0 0 0 0 0 0 0 -0 -0 -0 0 0 0 0 0 0 0 0 0 0 0 0 0 0 0 0 0 0 0 0 0 0 0 0 0 0 0 0 0 0 0
0 0 0 0 0 0 0 0 0 0 0 0 0 0 0 -0 -0 -0 -0 0 0 0 0 0 0 0 0 0 0 0 0 0 0 0 0 0 0 0 0 0 0 0 0 0 0 0 0 0 0
0 0 0 0 0 0 0 0 0 0 0 0 0 0 0 -0 -0 -0 -0 0 0 0 0 0 0 0 0 0 0 0 0 0 0 0 0 0 0 0 0 0 0 0 0 0 0 0 0 0 0
0 0 0 0 0 0 0 0 0 0 0 0 0 0 0 0 0 0 0 0 0 0 0 0 0 0 0 0 0 0 0 0 0 0 0 0 0 0 0 0 0 0 0 0 0 0 0 0 0
0 0 0 0 0 0 0 0 0 0 0 0 0 0 0 0 0 0 0 0 0 0 0 0 0 0 0 0 0 0 0 0 0 0 0 0 0 0 0 0 0 0 0 0 0 0 0 -0 -0
0 0 0 0 0 0 0 0 0 0 0 0 0 0 0 0 0 0 0 0 0 0 0 0 0 0 0 0 0 0 0 0 0 0 0 0 0 0 0 0 0 0 0 0 0 0 -0 -0 -0
0 0 0 0 0 0 0 0 0 0 0 0 0 0 0 0 0 0 0 0 0 0 0 0 0 0 0 0 0 0 0 0 0 0 0 0 0 0 0 0 0 0 0 0 0 0 -0 -0 -0
0 0 0 0 0 0 0 0 0 0 0 0 0 0 0 0 0 0 0 0 0 0 0 0 0 0 0 0 0 0 0 0 0 0 0 0 0 0 0 0 0 0 0 0 0 0 0 0 0
0 0 0 0 0 0 0 0 0 0 0 0 0 0 0 0 0 0 0 0 0 0 0 0 0 0 0 0 0 0 0 0 0 0 0 0 0 0 0 0 0 0 0 0 0 0 0 0 0
0 0 0 0 0 0 0 0 0 0 0 0 0 0 0 0 0 0 0 0 0 0 0 0 0 0 0 0 0 0 0 0 0 0 0 0 0 0 0 0 0 0 0 0 0 0 0 0 0
0 0 0 0 0 0 0 0 0 0 0 0 0 0 0 0 0 0 0 0 0 0 0 0 0 0 0 0 0 0 0 0 0 0 0 0 0 0 0 0 0 0 0 0 0 0 0 0 0
0 0 0 0 0 0 0 0 0 0 0 0 0 0 0 0 0 0 0 0 0 0 0 0 0 0 0 0 0 0 0 0 0 0 0 0 0 0 0 0 0 0 0 0 0 0 0 0 0
0 0 0 0 0 0 0 -0 0 0 0 0 0 0 0 0 0 0 0 0 0 0 0 0 0 0 0 0 0 0 0 0 0 0 0 0 0 0 0 0 0 0 0 0 0 0 0 0 0
0 0 0 0 0 0 0 0 0 0 0 0 0 0 0 0 0 0 0 0 0 0 0 0 0 0 0 0 0 0 0 0 0 0 0 0 0 0 0 0 0 0 0 0 0 0 0 0 0
0 0 0 0 0 0 0 0 0 0 0 0 0 0 0 0 0 0 0 0 0 0 0 0 0 0 0 0 0 0 0 0 0 0 0 0 0 0 0 0 0 0 0 0 0 0 0 0 0
0 0 0 0 0 0 0 0 0 0 0 0 0 0 0 0 0 0 0 0 0 0 0 0 0 0 0 0 0 0 0 0 0 0 0 0 0 0 0 0 0 0 0 0 0 0 0 0 0
0 0 0 0 0 -0 0 0 0 0 0 0 0 0 0 0 0 0 0 0 0 0 0 0 0 0 0 0 0 0 0 0 0 0 0 0 0 0 0 0 0 0 0 0 0 0 0 0 0
0 0 0 0 0 0 0 0 0 0 0 0 0 0 0 0 0 0 0 0 0 0 0 0 0 0 0 0 0 0 0 0 0 0 0 0 0 0 0 0 0 0 0 0 0 0 0 0 0
0 0 0 0 0 0 -0 0 0 0 0 0 0 0 0 0 0 0 0 0 0 0 0 0 0 0 0 0 0 0 0 0 0 0 0 0 0 0 0 0 0 0 0 0 0 0 0 0 0
0 0 0 0 0 0 0 0 0 0 0 0 0 0 0 0 0 0 0 0 0 0 0 0 0 0 0 0 0 0 0 0 0 0 0 0 0 0 0 0 0 0 0 0 0 0 0 0 0
0 0 0 0 0 0 0 -0 0 0 0 0 0 0 0 0 0 0 0 0 0 0 0 0 0 0 0 0 0 0 0 0 0 0 0 0 0 0 0 0 0 0 0 0 0 0 0 0 0
Wind_Speed_500mb
11 8 4 3 11 10 9 9 4 15 11 10 9 12 12 7 4 3 11 25 22 14 7 5 4 4 5 8 10 13 14 12 14 16 15 14 16 18 20 19 21 23 24 26 28 30 30 31 31
9 5 3 8 12 16 6 11 15 16 11 17 13 7 8 7 4 6 14 29 23 16 12 6 4 5 8 10 13 14 16 19 20 21 21 21 21 22 24 25 26 26 28 29 29 31 33 34 34
10 7 11 8 12 15 9 12 14 19 18 19 13 9 5 1 6 17 22 29 22 16 7 3 5 5 7 10 11 12 15 18 19 20 25 25 26 27 29 31 32 31 31 33 35 37 37 37 37
1 6 12 13 22 7 9 9 13 23 13 11 6 9 3 18 13 15 27 27 22 13 9 8 5 3 5 6 7 8 9 13 13 15 15 16 17 19 23 26 30 33 36 38 40 41 42 42 42
5 11 14 16 18 6 5 4 17 22 16 17 15 3 4 11 22 21 31 28 23 19 16 12 8 7 7 6 6 8 9 11 12 15 18 20 21 21 23 25 27 28 30 32 37 41 42 42 43
13 10 13 18 8 2 6 11 19 23 16 13 14 15 8 19 26 27 32 31 27 24 20 15 13 12 10 9 11 11 12 14 15 16 16 16 17 19 21 22 24 25 26 29 34 38 40 41 42
15 12 21 17 17 11 12 16 24 23 23 21 4 11 5 22 27 33 35 35 32 29 25 23 20 16 14 13 14 15 14 14 13 12 11 13 16 18 21 24 28 30 30 30 30 31 34 37 42
9 8 15 10 10 13 11 20 10 24 25 17 16 12 17 27 34 37 39 38 38 36 32 29 24 20 18 17 17 16 15 14 12 13 12 12 14 18 22 23 26 29 32 34 34 35 36 36 37
6 9 14 10 8 3 9 20 9 13 20 15 21 19 18 22 34 39 42 42 42 43 40 34 29 25 24 22 20 19 17 15 13 11 11 12 13 15 18 22 25 27 29 31 33 34 35 35 36
13 11 10 1 7 9 11 22 18 13 27 37 33 32 36 33 36 43 47 48 48 49 46 39 35 33 30 28 24 22 20 16 13 12 10 9 11 14 18 22 26 29 32 33 34 35 35 35 37
7 10 4 12 15 12 16 19 22 21 32 34 39 40 43 43 45 48 50 51 50 47 49 47 44 40 37 34 29 26 22 19 18 16 13 11 11 14 19 24 30 35 36 36 35 35 35 37 39
11 24 17 4 10 9 18 14 18 43 50 14 24 30 45 48 54 56 55 52 49 50 52 52 51 46 43 38 35 31 27 24 21 17 14 12 13 16 21 26 30 35 39 40 39 39 40 40 41
19 20 15 19 15 21 17 29 25 42 46 43 33 38 39 46 52 53 52 51 51 54 56 58 56 52 47 43 39 35 31 27 23 20 18 16 16 17 21 25 31 37 41 43 43 43 42 41 42
10 20 27 19 27 22 20 30 11 29 31 48 46 41 41 49 51 50 55 59 61 60 59 58 58 54 50 45 40 36 32 28 25 23 19 17 17 19 22 27 34 41 45 47 47 49 51 52 53
12 18 26 34 29 13 17 21 36 53 25 28 38 45 45 51 50 61 60 63 63 65 60 63 61 58 53 49 44 41 36 33 31 27 23 21 21 21 24 30 35 41 45 46 47 49 53 57 61
12 11 20 4 21 11 17 35 25 22 27 35 41 44 47 54 62 59 60 62 64 65 66 64 63 62 57 54 49 44 40 38 36 30 26 24 23 23 26 30 35 40 44 48 51 53 57 60 65
20 25 30 26 31 8 26 29 9 9 20 39 47 49 53 55 57 59 61 65 65 66 64 69 68 65 61 58 53 49 46 43 38 31 27 27 26 27 29 33 37 42 46 49 52 53 57 62 67
32 30 33 37 19 26 28 42 43 50 46 56 64 63 64 65 61 55 57 62 61 63 65 70 71 69 66 62 57 54 52 48 41 36 34 32 31 30 33 35 39 43 47 48 51 54 55 60 65
44 41 44 51 18 22 39 44 47 55 55 59 67 67 65 62 54 52 57 63 66 66 72 75 74 73 72 70 65 61 58 51 46 42 40 38 37 36 35 36 40 44 47 51 50 53 57 59 60
38 43 51 45 18 15 33 43 42 42 56 68 66 68 53 45 44 47 53 64 76 74 77 77 74 74 75 72 68 64 58 54 49 48 46 44 42 39 35 36 41 46 48 47 48 50 54 54 49
39 42 45 43 25 26 26 33 30 29 43 52 64 70 49 45 39 48 58 64 70 76 78 79 78 78 78 74 71 68 60 56 54 54 52 50 45 40 38 39 43 47 48 45 46 49 52 52 52
41 35 39 39 22 24 6 27 28 29 34 27 53 64 46 33 38 44 57 64 68 69 70 73 77 82 83 81 81 75 69 63 58 56 56 54 46 40 41 43 45 46 48 46 45 47 51 54 54
25 4 11 20 27 35 30 29 32 15 19 24 36 59 44 26 36 44 57 58 56 58 63 69 73 82 88 88 85 79 74 68 61 62 57 52 46 44 45 46 45 47 49 45 45 50 53 56 56
10 7 9 10 15 23 36 35 17 15 12 17 26 47 28 23 28 35 44 47 51 57 61 71 70 79 87 90 88 86 81 75 70 65 59 52 49 48 49 44 46 50 49 46 50 54 59 62 64
18 13 12 15 15 34 27 27 32 19 22 28 40 55 13 20 29 37 44 48 52 60 63 66 64 70 82 89 92 92 86 79 74 66 60 55 54 51 45 45 49 51 50 52 58 62 66 65 68
30 27 12 25 31 51 4 28 21 28 35 45 51 35 22 26 35 43 47 47 51 57 61 58 62 68 77 86 93 95 89 85 78 69 62 59 55 48 47 50 51 51 53 56 60 64 67 68 70
17 17 7 16 5 18 29 44 31 14 24 28 19 26 43 39 44 48 46 50 53 55 58 57 60 68 74 85 92 97 94 89 81 71 64 58 51 49 50 50 50 52 54 57 62 65 67 68 71
11 4 10 9 13 35 58 43 32 30 34 22 11 25 49 33 41 44 49 54 57 53 59 65 66 69 71 82 93 99 97 87 77 71 63 54 52 50 49 49 50 51 54 58 61 65 66 70 73
13 13 13 9 16 23 40 20 19 22 16 14 17 29 40 28 32 41 52 57 56 55 63 73 68 71 74 83 94 99 97 87 80 71 62 55 52 51 49 48 49 52 54 58 60 63 66 70 73
25 41 42 24 34 17 29 57 6 12 4 14 12 17 29 40 39 35 41 49 57 66 75 76 76 77 78 85 92 99 97 89 80 69 61 56 51 50 49 49 49 52 55 56 60 63 66 69 74
Wind_Direction_500mb
176 173 148 245 244 235 226 195 129 165 166 146 184 176 256 336 291 357 172 167 171 176 174 162 186 252 260 256 229 230 241 250 258 269 279 279 280 283 286 287 289 293 295 296 296 296 296 298 300
180 185 264 267 254 249 143 148 185 172 110 158 169 215 249 225 99 147 141 171 177 181 197 182 199 237 249 259 261 253 251 254 264 276 276 273 272 277 283 287 284 287 288 287 289 291 294 294 296
170 174 256 241 261 273 354 170 165 121 144 169 178 222 290 91 159 160 194 180 187 192 214 321 297 305 301 297 293 281 272 268 268 268 271 281 286 287 289 290 292 292 292 293 295 295 293 293 292
137 231 246 248 258 285 311 179 146 148 160 183 209 204 192 197 166 186 179 183 194 196 232 241 243 289 298 292 291 292 297 295 300 295 298 297 300 300 299 298 300 299 296 294 291 289 290 291 291
212 251 253 247 271 277 233 212 170 177 167 183 192 215 213 221 201 203 188 196 197 205 214 215 214 215 237 259 280 287 291 294 300 305 309 308 305 302 301 301 298 296 296 296 292 288 286 283 282
243 269 252 259 267 205 231 199 192 195 183 153 204 243 240 229 209 205 200 205 207 211 215 220 226 241 252 268 285 293 298 302 304 303 302 306 309 313 315 315 315 319 317 307 299 299 298 295 291
258 263 275 295 277 243 222 192 204 211 204 208 223 225 182 219 206 204 200 205 210 212 215 221 225 234 250 260 268 277 286 293 301 311 322 326 332 338 343 344 345 342 342 338 333 326 318 307 299
256 267 275 253 281 269 167 186 225 221 236 187 194 230 236 215 207 205 209 210 213 214 218 223 226 233 244 254 261 264 276 289 303 315 326 330 338 342 344 344 343 343 344 342 340 337 334 330 324
221 250 265 277 259 340 161 208 208 224 225 209 223 242 224 199 208 202 208 211 214 218 222 223 228 232 238 241 243 253 255 264 277 293 309 329 337 337 338 340 340 338 336 335 333 332 332 331 328
236 253 280 306 266 259 202 228 210 217 219 232 237 232 239 211 213 210 211 214 217 221 224 226 228 230 232 235 235 237 241 244 253 259 270 283 303 328 338 340 339 334 332 329 329 329 327 328 327
205 252 355 246 238 244 243 227 219 230 246 230 236 234 230 215 220 218 220 220 222 222 224 225 226 227 228 231 231 232 235 233 233 236 245 265 298 324 335 338 338 336 332 327 324 324 324 323 323
257 247 247 263 236 239 238 254 227 228 238 251 245 244 220 221 223 226 222 218 214 214 221 222 225 226 226 227 227 229 230 233 239 242 255 278 302 318 326 330 329 327 326 326 326 326 326 324 322
251 276 250 242 228 238 251 241 249 255 250 249 249 240 215 228 229 229 224 220 215 215 219 222 223 223 225 225 225 226 228 229 233 239 253 270 287 302 314 320 323 324 328 330 329 327 325 323 320
339 281 268 258 247 239 231 257 233 263 251 244 237 239 228 227 228 224 221 219 216 217 220 221 222 223 224 224 226 228 229 232 237 247 257 269 281 298 311 318 322 327 328 328 329 331 330 330 328
273 284 276 247 241 241 211 254 237 255 250 237 235 235 233 231 225 227 229 222 220 223 218 222 221 221 223 225 226 229 232 235 240 246 256 266 278 293 307 317 321 323 324 326 328 328 329 329 329
259 253 271 128 185 198 192 264 252 250 217 237 245 245 239 234 231 230 226 225 220 219 219 219 220 222 223 226 227 229 231 234 238 242 250 260 274 288 299 309 312 317 323 326 327 330 329 327 326
210 266 267 255 193 162 208 268 281 195 238 260 259 255 245 241 235 229 225 223 219 218 215 220 222 223 224 226 227 230 234 237 240 244 251 261 269 281 295 302 311 320 324 326 324 324 324 323 322
274 276 272 270 196 216 231 251 272 271 270 269 267 265 260 251 241 234 226 220 217 214 214 221 223 223 224 226 226 229 233 236 240 243 248 259 268 279 287 302 313 319 322 321 319 318 319 319 319
275 281 277 274 268 214 243 256 265 273 276 274 272 271 263 258 255 234 226 217 213 212 214 221 221 221 222 224 226 229 233 235 238 241 247 254 261 272 286 301 309 315 316 317 317 316 319 320 320
261 264 269 275 289 206 266 267 268 269 266 270 273 271 270 267 240 226 219 212 215 213 222 223 221 222 225 228 229 231 233 235 238 241 246 252 261 272 286 296 304 308 307 313 315 315 317 318 324
249 252 260 265 270 221 269 273 255 248 253 261 266 266 269 255 241 217 211 210 214 216 223 224 226 225 229 229 229 229 230 233 238 242 246 251 259 271 283 294 300 299 304 308 310 311 313 313 314
260 269 256 265 273 267 136 286 274 288 262 231 265 274 265 246 229 217 209 208 216 220 223 228 228 230 231 229 231 232 236 238 241 242 243 249 260 272 282 290 293 299 300 301 307 310 311 310 308
253 310 253 257 257 278 262 271 267 205 261 240 244 258 272 251 227 212 214 216 217 219 223 228 229 233 233 232 232 233 233 234 235 240 242 250 261 271 280 285 293 295 295 300 304 306 306 303 299
108 253 248 231 260 253 252 241 287 208 206 233 251 261 245 244 209 204 210 210 212 220 222 227 226 234 234 234 233 233 233 233 234 239 244 250 259 268 275 286 290 291 293 301 302 303 303 300 296
202 211 263 246 227 265 268 259 261 280 226 238 258 264 221 218 202 195 203 209 215 219 218 223 225 233 238 234 231 232 232 232 235 238 241 248 256 265 277 283 286 289 296 302 302 301 299 297 293
198 210 222 269 271 284 46 265 261 234 239 242 248 250 229 219 217 212 210 222 224 221 220 219 226 232 237 237 232 232 232 232 234 237 240 246 254 265 273 277 283 291 296 299 299 298 296 295 292
165 206 273 273 146 278 267 263 253 169 196 220 218 229 243 229 227 225 228 233 226 228 225 225 230 232 237 239 234 232 232 232 234 235 238 247 256 263 269 278 285 290 294 297 296 297 296 295 295
233 97 197 200 271 265 279 281 271 254 231 218 234 238 256 246 234 233 236 236 230 231 232 229 233 237 238 238 237 235 233 232 232 234 239 245 254 263 271 278 283 289 293 295 297 298 300 297 295
185 222 216 290 233 255 275 269 80 101 103 141 215 237 253 250 249 245 246 239 236 238 239 233 235 235 236 236 236 234 233 229 229 233 238 245 254 264 272 277 282 287 291 295 298 300 299 296 296
258 231 217 222 232 228 249 271 122 234 135 157 181 232 264 269 260 239 246 246 239 248 241 240 240 238 239 237 234 233 232 227 228 231 238 245 255 263 269 274 280 285 293 298 299 301 299 297 295
Wind_Speed_850mb
11 8 4 3 11 10 9 9 4 15 11 10 9 12 12 7 4 3 11 25 22 14 7 5 4 4 5 8 10 13 14 12 14 16 15 14 16 18 20 19 21 23 24 26 28 30 30 31 31
9 5 3 8 12 16 6 11 15 16 11 17 13 7 8 7 4 6 14 29 23 16 12 6 4 5 8 10 13 14 16 19 20 21 21 21 21 22 24 25 26 26 28 29 29 31 33 34 34
10 7 11 8 12 15 9 12 14 19 18 19 13 9 5 1 6 17 22 29 22 16 7 3 5 5 7 10 11 12 15 18 19 20 25 25 26 27 29 31 32 31 31 33 35 37 37 37 37
1 6 12 13 22 7 9 9 13 23 13 11 6 9 3 18 13 15 27 27 22 13 9 8 5 3 5 6 7 8 9 13 13 15 15 16 17 19 23 26 30 33 36 38 40 41 42 42 42
5 11 14 16 18 6 5 4 17 22 16 17 15 3 4 11 22 21 31 28 23 19 16 12 8 7 7 6 6 8 9 11 12 15 18 20 21 21 23 25 27 28 30 32 37 41 42 42 43
13 10 13 18 8 2 6 11 19 23 16 13 14 15 8 19 26 27 32 31 27 24 20 15 13 12 10 9 11 11 12 14 15 16 16 16 17 19 21 22 24 25 26 29 34 38 40 41 42
15 12 21 17 17 11 12 16 24 23 23 21 4 11 5 22 27 33 35 35 32 29 25 23 20 16 14 13 14 15 14 14 13 12 11 13 16 18 21 24 28 30 30 30 30 31 34 37 42
9 8 15 10 10 13 11 20 10 24 25 17 16 12 17 27 34 37 39 38 38 36 32 29 24 20 18 17 17 16 15 14 12 13 12 12 14 18 22 23 26 29 32 34 34 35 36 36 37
6 9 14 10 8 3 9 20 9 13 20 15 21 19 18 22 34 39 42 42 42 43 40 34 29 25 24 22 20 19 17 15 13 11 11 12 13 15 18 22 25 27 29 31 33 34 35 35 36
13 11 10 1 7 9 11 22 18 13 27 37 33 32 36 33 36 43 47 48 48 49 46 39 35 33 30 28 24 22 20 16 13 12 10 9 11 14 18 22 26 29 32 33 34 35 35 35 37
7 10 4 12 15 12 16 19 22 21 32 34 39 40 43 43 45 48 50 51 50 47 49 47 44 40 37 34 29 26 22 19 18 16 13 11 11 14 19 24 30 35 36 36 35 35 35 37 39
11 24 17 4 10 9 18 14 18 43 50 14 24 30 45 48 54 56 55 52 49 50 52 52 51 46 43 38 35 31 27 24 21 17 14 12 13 16 21 26 30 35 39 40 39 39 40 40 41
19 20 15 19 15 21 17 29 25 42 46 43 33 38 39 46 52 53 52 51 51 54 56 58 56 52 47 43 39 35 31 27 23 20 18 16 16 17 21 25 31 37 41 43 43 43 42 41 42
10 20 27 19 27 22 20 30 11 29 31 48 46 41 41 49 51 50 55 59 61 60 59 58 58 54 50 45 40 36 32 28 25 23 19 17 17 19 22 27 34 41 45 47 47 49 51 52 53
12 18 26 34 29 13 17 21 36 53 25 28 38 45 45 51 50 61 60 63 63 65 60 63 61 58 53 49 44 41 36 33 31 27 23 21 21 21 24 30 35 41 45 46 47 49 53 57 61
12 11 20 4 21 11 17 35 25 22 27 35 41 44 47 54 62 59 60 62 64 65 66 64 63 62 57 54 49 44 40 38 36 30 26 24 23 23 26 30 35 40 44 48 51 53 57 60 65
20 25 30 26 31 8 26 29 9 9 20 39 47 49 53 55 57 59 61 65 65 66 64 69 68 65 61 58 53 49 46 43 38 31 27 27 26 27 29 33 37 42 46 49 52 53 57 62 67
32 30 33 37 19 26 28 42 43 50 46 56 64 63 64 65 61 55 57 62 61 63 65 70 71 69 66 62 57 54 52 48 41 36 34 32 31 30 33 35 39 43 47 48 51 54 55 60 65
44 41 44 51 18 22 39 44 47 55 55 59 67 67 65 62 54 52 57 63 66 66 72 75 74 73 72 70 65 61 58 51 46 42 40 38 37 36 35 36 40 44 47 51 50 53 57 59 60
38 43 51 45 18 15 33 43 42 42 56 68 66 68 53 45 44 47 53 64 76 74 77 77 74 74 75 72 68 64 58 54 49 48 46 44 42 39 35 36 41 46 48 47 48 50 54 54 49
39 42 45 43 25 26 26 33 30 29 43 52 64 70 49 45 39 48 58 64 70 76 78 79 78 78 78 74 71 68 60 56 54 54 52 50 45 40 38 39 43 47 48 45 46 49 52 52 52
41 35 39 39 22 24 6 27 28 29 34 27 53 64 46 33 38 44 57 64 68 69 70 73 77 82 83 81 81 75 69 63 58 56 56 54 46 40 41 43 45 46 48 46 45 47 51 54 54
25 4 11 20 27 35 30 29 32 15 19 24 36 59 44 26 36 44 57 58 56 58 63 69 73 82 88 88 85 79 74 68 61 62 57 52 46 44 45 46 45 47 49 45 45 50 53 56 56
10 7 9 10 15 23 36 35 17 15 12 17 26 47 28 23 28 35 44 47 51 57 61 71 70 79 87 90 88 86 81 75 70 65 59 52 49 48 49 44 46 50 49 46 50 54 59 62 64
18 13 12 15 15 34 27 27 32 19 22 28 40 55 13 20 29 37 44 48 52 60 63 66 64 70 82 89 92 92 86 79 74 66 60 55 54 51 45 45 49 51 50 52 58 62 66 65 68
30 27 12 25 31 51 4 28 21 28 35 45 51 35 22 26 35 43 47 47 51 57 61 58 62 68 77 86 93 95 89 85 78 69 62 59 55 48 47 50 51 51 53 56 60 64 67 68 70
17 17 7 16 5 18 29 44 31 14 24 28 19 26 43 39 44 48 46 50 53 55 58 57 60 68 74 85 92 97 94 89 81 71 64 58 51 49 50 50 50 52 54 57 62 65 67 68 71
11 4 10 9 13 35 58 43 32 30 34 22 11 25 49 33 41 44 49 54 57 53 59 65 66 69 71 82 93 99 97 87 77 71 63 54 52 50 49 49 50 51 54 58 61 65 66 70 73
13 13 13 9 16 23 40 20 19 22 16 14 17 29 40 28 32 41 52 57 56 55 63 73 68 71 74 83 94 99 97 87 80 71 62 55 52 51 49 48 49 52 54 58 60 63 66 70 73
25 41 42 24 34 17 29 57 6 12 4 14 12 17 29 40 39 35 41 49 57 66 75 76 76 77 78 85 92 99 97 89 80 69 61 56 51 50 49 49 49 52 55 56 60 63 66 69 74
Wind_Direction_850mb
176 173 148 245 244 235 226 195 129 165 166 146 184 176 256 336 291 357 172 167 171 176 174 162 186 252 260 256 229 230 241 250 258 269 279 279 280 283 286 287 289 293 295 296 296 296 296 298 300
180 185 264 267 254 249 143 148 185 172 110 158 169 215 249 225 99 147 141 171 177 181 197 182 199 237 249 259 261 253 251 254 264 276 276 273 272 277 283 287 284 287 288 287 289 291 294 294 296
170 174 256 241 261 273 354 170 165 121 144 169 178 222 290 91 159 160 194 180 187 192 214 321 297 305 301 297 293 281 272 268 268 268 271 281 286 287 289 290 292 292 292 293 295 295 293 293 292
137 231 246 248 258 285 311 179 146 148 160 183 209 204 192 197 166 186 179 183 194 196 232 241 243 289 298 292 291 292 297 295 300 295 298 297 300 300 299 298 300 299 296 294 291 289 290 291 291
212 251 253 247 271 277 233 212 170 177 167 183 192 215 213 221 201 203 188 196 197 205 214 215 214 215 237 259 280 287 291 294 300 305 309 308 305 302 301 301 298 296 296 296 292 288 286 283 282
243 269 252 259 267 205 231 199 192 195 183 153 204 243 240 229 209 205 200 205 207 211 215 220 226 241 252 268 285 293 298 302 304 303 302 306 309 313 315 315 315 319 317 307 299 299 298 295 291
258 263 275 295 277 243 222 192 204 211 204 208 223 225 182 219 206 204 200 205 210 212 215 221 225 234 250 260 268 277 286 293 301 311 322 326 332 338 343 344 345 342 342 338 333 326 318 307 299
256 267 275 253 281 269 167 186 225 221 236 187 194 230 236 215 207 205 209 210 213 214 218 223 226 233 244 254 261 264 276 289 303 315 326 330 338 342 344 344 343 343 344 342 340 337 334 330 324
221 250 265 277 259 340 161 208 208 224 225 209 223 242 224 199 208 202 208 211 214 218 222 223 228 232 238 241 243 253 255 264 277 293 309 329 337 337 338 340 340 338 336 335 333 332 332 331 328
236 253 280 306 266 259 202 228 210 217 219 232 237 232 239 211 213 210 211 214 217 221 224 226 228 230 232 235 235 237 241 244 253 259 270 283 303 328 338 340 339 334 332 329 329 329 327 328 327
205 252 355 246 238 244 243 227 219 230 246 230 236 234 230 215 220 218 220 220 222 222 224 225 226 227 228 231 231 232 235 233 233 236 245 265 298 324 335 338 338 336 332 327 324 324 324 323 323
257 247 247 263 236 239 238 254 227 228 238 251 245 244 220 221 223 226 222 218 214 214 221 222 225 226 226 227 227 229 230 233 239 242 255 278 302 318 326 330 329 327 326 326 326 326 326 324 322
251 276 250 242 228 238 251 241 249 255 250 249 249 240 215 228 229 229 224 220 215 215 219 222 223 223 225 225 225 226 228 229 233 239 253 270 287 302 314 320 323 324 328 330 329 327 325 323 320
339 281 268 258 247 239 231 257 233 263 251 244 237 239 228 227 228 224 221 219 216 217 220 221 222 223 224 224 226 228 229 232 237 247 257 269 281 298 311 318 322 327 328 328 329 331 330 330 328
273 284 276 247 241 241 211 254 237 255 250 237 235 235 233 231 225 227 229 222 220 223 218 222 221 221 223 225 226 229 232 235 240 246 256 266 278 293 307 317 321 323 324 326 328 328 329 329 329
259 253 271 128 185 198 192 264 252 250 217 237 245 245 239 234 231 230 226 225 220 219 219 219 220 222 223 226 227 229 231 234 238 242 250 260 274 288 299 309 312 317 323 326 327 330 329 327 326
210 266 267 255 193 162 208 268 281 195 238 260 259 255 245 241 235 229 225 223 219 218 215 220 222 223 224 226 227 230 234 237 240 244 251 261 269 281 295 302 311 320 324 326 324 324 324 323 322
274 276 272 270 196 216 231 251 272 271 270 269 267 265 260 251 241 234 226 220 217 214 214 221 223 223 224 226 226 229 233 236 240 243 248 259 268 279 287 302 313 319 322 321 319 318 319 319 319
275 281 277 274 268 214 243 256 265 273 276 274 272 271 263 258 255 234 226 217 213 212 214 221 221 221 222 224 226 229 233 235 238 241 247 254 261 272 286 301 309 315 316 317 317 316 319 320 320
261 264 269 275 289 206 266 267 268 269 266 270 273 271 270 267 240 226 219 212 215 213 222 223 221 222 225 228 229 231 233 235 238 241 246 252 261 272 286 296 304 308 307 313 315 315 317 318 324
249 252 260 265 270 221 269 273 255 248 253 261 266 266 269 255 241 217 211 210 214 216 223 224 226 225 229 229 229 229 230 233 238 242 246 251 259 271 283 294 300 299 304 308 310 311 313 313 314
260 269 256 265 273 267 136 286 274 288 262 231 265 274 265 246 229 217 209 208 216 220 223 228 228 230 231 229 231 232 236 238 241 242 243 249 260 272 282 290 293 299 300 301 307 310 311 310 308
253 310 253 257 257 278 262 271 267 205 261 240 244 258 272 251 227 212 214 216 217 219 223 228 229 233 233 232 232 233 233 234 235 240 242 250 261 271 280 285 293 295 295 300 304 306 306 303 299
108 253 248 231 260 253 252 241 287 208 206 233 251 261 245 244 209 204 210 210 212 220 222 227 226 234 234 234 233 233 233 233 234 239 244 250 259 268 275 286 290 291 293 301 302 303 303 300 296
202 211 263 246 227 265 268 259 261 280 226 238 258 264 221 218 202 195 203 209 215 219 218 223 225 233 238 234 231 232 232 232 235 238 241 248 256 265 277 283 286 289 296 302 302 301 299 297 293
198 210 222 269 271 284 46 265 261 234 239 242 248 250 229 219 217 212 210 222 224 221 220 219 226 232 237 237 232 232 232 232 234 237 240 246 254 265 273 277 283 291 296 299 299 298 296 295 292
165 206 273 273 146 278 267 263 253 169 196 220 218 229 243 229 227 225 228 233 226 228 225 225 230 232 237 239 234 232 232 232 234 235 238 247 256 263 269 278 285 290 294 297 296 297 296 295 295
233 97 197 200 271 265 279 281 271 254 231 218 234 238 256 246 234 233 236 236 230 231 232 229 233 237 238 238 237 235 233 232 232 234 239 245 254 263 271 278 283 289 293 295 297 298 300 297 295
185 222 216 290 233 255 275 269 80 101 103 141 215 237 253 250 249 245 246 239 236 238 239 233 235 235 236 236 236 234 233 229 229 233 238 245 254 264 272 277 282 287 291 295 298 300 299 296 296
258 231 217 222 232 228 249 271 122 234 135 157 181 232 264 269 260 239 246 246 239 248 241 240 240 238 239 237 234 233 232 227 228 231 238 245 255 263 269 274 280 285 293 298 299 301 299 297 295